Home   Weather   Dhaka   Past weeks
Flag for Bangladesh

Past Weather in Dhaka, Bangladesh — Yesterday and Last 2 Weeks

Now
91 °F

Haze.


Feels Like: 97 °F
Forecast: 100 / 82 °F
Wind: No wind

Location: Agartala Airport

Current Time: Apr 24, 2019 at 11:18:04 am

Latest Report: Apr 24, 2019 at 10:30 am


Visibility: 3 mi

Pressure: 29.86 "Hg

Humidity: 49%

Dew Point: 70 °F

Location of DhakaLocation

Past Weather in Dhaka — Graph

°F

Dhaka Temperature Yesterday

Maximum temperature yesterday: 95 °F (at 1:30 pm)
Minimum temperature yesterday: 72 °F (at 6:00 am)
Average temperature yesterday: 89 °F

High & Low Weather Summary for the Past Weeks

 TemperatureHumidityPressure
High97 °F (Apr 16, 2:30 pm)100% (Apr 9, 11:30 am)29.92 "Hg (Apr 9, 11:30 am)
Low64 °F (Apr 9, 11:30 am)36% (Apr 23, 11:30 am)29.62 "Hg (Apr 20, 6:00 pm)
Average86 °F65%29.79 "Hg
* Reported Apr 9 10:00 am — Apr 24 10:00 am, Dhaka. Weather by CustomWeather, © 2019

Note: Actual official high and low records may vary slightly from our data, if they occured in-between our weather recording intervals... More about our weather records

Advertising

Dhaka Weather History for the Previous 24 Hours

Scroll right to see more
 ConditionsComfort  
Time TempWeatherWind HumidityBarometerVisibility
10:00 am
Wed, Apr 24
91 °FHaze.No wind49%29.86 "Hg3 mi
9:30 am88 °FHaze.No wind55%29.89 "Hg3 mi
9:00 am88 °FHaze.2 mph55%29.89 "Hg3 mi
8:30 am86 °FHaze.No wind62%29.86 "Hg2 mi
8:00 am84 °FHaze.No wind62%29.86 "Hg2 mi
7:00 am77 °FFog.No wind79%29.83 "Hg1 mi
8:00 pm
Tue, Apr 23
86 °FHaze.No wind66%29.80 "Hg3 mi
7:30 pm88 °FHaze.No wind59%29.77 "Hg3 mi
7:00 pm88 °FHaze.No wind55%29.77 "Hg3 mi
6:30 pm90 °FHaze.No wind52%29.77 "Hg3 mi
6:00 pm91 °FClear.No wind49%29.77 "Hg4 mi
5:30 pm93 °FClear.2 mph47%29.74 "Hg4 mi
5:00 pm93 °FClear.3 mph44%29.74 "Hg4 mi
4:30 pm95 °FClear.3 mph36%29.74 "Hg4 mi
4:00 pm95 °FClear.2 mph36%29.74 "Hg5 mi
3:30 pm95 °FClear.2 mph36%29.74 "Hg6 mi
3:00 pm95 °FClear.2 mph36%29.77 "Hg6 mi
2:30 pm95 °FClear.2 mph36%29.77 "Hg6 mi
2:00 pm95 °FClear.2 mph36%29.77 "Hg5 mi
1:30 pm95 °FClear.2 mph39%29.80 "Hg4 mi
1:00 pm93 °FClear.2 mph41%29.80 "Hg4 mi
12:30 pm93 °FClear.No wind39%29.83 "Hg4 mi
12:00 pm93 °FClear.No wind39%29.83 "Hg4 mi
11:30 am93 °FClear.No wind36%29.83 "Hg4 mi
11:00 am91 °FHaze.No wind44%29.83 "Hg3 mi
Weather by CustomWeather, © 2019

See weather overview